BRISAT

Last updated on Sun Aug 31 2025 00:02:49 GMT+0000 (Coordinated Universal Time)

1 41591U 16039A 25241.84239862 -.00000193 00000+0 00000+0 0 9997 2 41591 0.0131 202.5280 0002250 309.5220 279.9932 1.00272693 33687
UTC large
Height (km)
Speed (km/s)
/
Latitude / Longitude
Inclination (degrees)
Orbital Period (minutes)
Azimuth
Elevation
Range (km)
Doppler Factor

Next 0 passes for location: London (51.5072 / 0.1276)

Sorry there are no passes over London.